Weather History for KOAJ - June, 2013

Change the Weather History Date:

Tuesday, June 4, 2013

  Actual Average Record
Temperature  
Mean Temperature 74 °F -  
Max Temperature 84 °F 81 °F 95 °F (2008)
Min Temperature 64 °F 59 °F 53 °F (1997)
Cooling Degree Days 9    
Growing Degree Days 24 (Base 50)    
Moisture  
Dew Point 68 °F    
Average Humidity 83    
Maximum Humidity 100    
Minimum Humidity 62    
Precipitation  
Precipitation 0.00 in - - ()
Sea Level Pressure  
Sea Level Pressure 30.01 in    
Wind  
Wind Speed 3 mph (ENE)    
Max Wind Speed 13 mph    
Max Gust Speed 17 mph    
Visibility 8 miles    
Events      
Averages and records for this station are not official NWS values.
T = Trace of Precipitation, MM = Missing Value Source: NWS Daily Summary

Daily Weather History Graph

Daily Weather History Graph

Search for Another Location

Airport or City:

Trip Planner

Search our weather history database for the weather conditions in past years. The results will help you decide how hot, cold, wet, or windy it might be!

Date:

Astronomy

Jun. 04, 2013 Rise Set
Actual Time 5:57 AM EDT 8:20 PM EDT
Civil Twilight 5:28 AM EDT 8:49 PM EDT
Nautical Twilight 4:52 AM EDT 9:25 PM EDT
Astronomical Twilight 4:12 AM EDT 10:05 PM EDT
Moon 3:18 AM EDT 4:54 PM EDT
Length of Visible Light 15h 21m
Length of Day
14h 23m
Waning Crescent, 14% of the Moon is Illuminated
Jun 4
Waning Crescent
Jun 8
New
Jun 16
First Quarter
Jun 23
Full
Jun 30
Last Quarter

Hourly Weather History & Observations

Time (EDT) Temp. Heat Index Dew Point Humidity Pressure Visibility Wind Dir Wind Speed Gust Speed Precip Events Conditions
12:15 AM 68.0 °F - 66.2 °F 94% 29.96 in 10.0 mi Calm Calm - N/A   Overcast
12:35 AM 68.0 °F - 66.2 °F 94% 29.95 in 10.0 mi Calm Calm - N/A   Mostly Cloudy
12:55 AM 68.0 °F - 66.2 °F 94% 29.95 in 7.0 mi Calm Calm - N/A   Partly Cloudy
1:15 AM 66.2 °F - 66.2 °F 100% 29.95 in 5.0 mi Calm Calm - N/A   Scattered Clouds
1:35 AM 68.0 °F - 66.2 °F 94% 29.95 in 9.0 mi Calm Calm - N/A   Partly Cloudy
1:55 AM 66.2 °F - 64.4 °F 94% 29.94 in 2.5 mi Calm Calm - N/A   Clear
2:15 AM 64.4 °F - 64.4 °F 100% 29.94 in 6.0 mi Calm Calm - N/A   Mostly Cloudy
2:35 AM 66.2 °F - 64.4 °F 94% 29.94 in 3.0 mi Calm Calm - N/A   Overcast
2:55 AM 68.0 °F - 66.2 °F 94% 29.94 in 0.2 mi WSW 3.5 mph - N/A   Overcast
3:15 AM 68.0 °F - 66.2 °F 94% 29.94 in 0.2 mi Calm Calm - N/A   Overcast
3:35 AM 68.0 °F - 66.2 °F 94% 29.93 in 0.2 mi Calm Calm - N/A   Overcast
3:55 AM 68.0 °F - 66.2 °F 94% 29.94 in 0.2 mi Calm Calm - N/A   Overcast
4:15 AM 68.0 °F - 66.2 °F 94% 29.93 in 0.2 mi Calm Calm - N/A   Overcast
4:35 AM 68.0 °F - 66.2 °F 94% 29.93 in 0.5 mi Calm Calm - N/A   Overcast
4:55 AM 68.0 °F - 66.2 °F 94% 29.93 in 0.5 mi Calm Calm - N/A   Overcast
5:15 AM 68.0 °F - 66.2 °F 94% 29.94 in 0.5 mi SSW 4.6 mph - N/A   Overcast
5:35 AM 68.0 °F - 66.2 °F 94% 29.95 in 0.5 mi Calm Calm - N/A   Overcast
5:55 AM 68.0 °F - 66.2 °F 94% 29.95 in 0.5 mi Calm Calm - N/A   Overcast
6:15 AM 68.0 °F - 66.2 °F 94% 29.96 in 0.5 mi Calm Calm - N/A   Overcast
6:35 AM 68.0 °F - 66.2 °F 94% 29.97 in 0.8 mi Calm Calm - N/A   Overcast
6:55 AM 68.0 °F - 66.2 °F 94% 29.98 in 4.0 mi Calm Calm - N/A   Overcast
7:15 AM 68.0 °F - 66.2 °F 94% 29.98 in 5.0 mi Calm Calm - N/A   Overcast
7:35 AM 68.0 °F - 66.2 °F 94% 29.99 in 8.0 mi NNW 3.5 mph - N/A   Overcast
7:55 AM 68.0 °F - 66.2 °F 94% 29.99 in 8.0 mi North 5.8 mph - N/A   Overcast
8:15 AM 69.8 °F - 68.0 °F 94% 29.99 in 9.0 mi Calm Calm - N/A   Overcast
8:35 AM 69.8 °F - 69.8 °F 100% 29.99 in 10.0 mi North 5.8 mph - N/A   Overcast
8:55 AM 69.8 °F - 69.8 °F 100% 30.01 in 10.0 mi Calm Calm - N/A   Overcast
9:15 AM 71.6 °F - 69.8 °F 94% 30.02 in 10.0 mi North 6.9 mph - N/A   Overcast
9:35 AM 71.6 °F - 69.8 °F 94% 30.02 in 10.0 mi North 8.1 mph - N/A   Overcast
9:55 AM 73.4 °F - 69.8 °F 88% 30.02 in 10.0 mi NE 10.4 mph - N/A   Overcast
10:15 AM 75.2 °F - 69.8 °F 83% 30.04 in 10.0 mi NNE 10.4 mph - N/A   Overcast
10:35 AM 75.2 °F - 69.8 °F 83% 30.04 in 10.0 mi East 8.1 mph - N/A   Overcast
10:55 AM 77.0 °F - 69.8 °F 78% 30.04 in 10.0 mi NE 6.9 mph - N/A   Overcast
11:15 AM 78.8 °F - 69.8 °F 74% 30.04 in 10.0 mi NE 9.2 mph - N/A   Overcast
11:35 AM 77.0 °F - 69.8 °F 78% 30.05 in 10.0 mi ENE 10.4 mph - N/A   Overcast
11:55 AM 77.0 °F - 69.8 °F 78% 30.06 in 10.0 mi ENE 5.8 mph - N/A   Overcast
12:15 PM 77.0 °F - 69.8 °F 78% 30.06 in 10.0 mi East 6.9 mph - N/A   Mostly Cloudy
12:35 PM 78.8 °F - 69.8 °F 74% 30.05 in 10.0 mi East 8.1 mph - N/A   Mostly Cloudy
12:55 PM 78.8 °F - 69.8 °F 74% 30.05 in 10.0 mi NE 9.2 mph - N/A   Mostly Cloudy
1:15 PM 80.6 °F 84.6 °F 71.6 °F 74% 30.04 in 10.0 mi ENE 11.5 mph - N/A   Partly Cloudy
1:35 PM 80.6 °F 84.6 °F 71.6 °F 74% 30.03 in 10.0 mi East 10.4 mph - N/A   Partly Cloudy
1:55 PM 80.6 °F 83.9 °F 69.8 °F 70% 30.03 in 10.0 mi NNE 8.1 mph - N/A   Scattered Clouds
2:15 PM 82.4 °F 86.3 °F 69.8 °F 66% 30.03 in 10.0 mi North 8.1 mph - N/A   Mostly Cloudy
2:35 PM 82.4 °F 86.3 °F 69.8 °F 66% 30.03 in 10.0 mi NNE 4.6 mph - N/A   Mostly Cloudy
2:55 PM 82.4 °F 86.3 °F 69.8 °F 66% 30.02 in 10.0 mi East 9.2 mph - N/A   Partly Cloudy
3:15 PM 82.4 °F 86.3 °F 69.8 °F 66% 30.02 in 10.0 mi NE 12.7 mph 17.3 mph N/A   Clear
3:35 PM 84.2 °F 88.4 °F 69.8 °F 62% 30.01 in 10.0 mi ENE 9.2 mph - N/A   Scattered Clouds
3:55 PM 84.2 °F 88.4 °F 69.8 °F 62% 30.01 in 10.0 mi NE 10.4 mph - N/A   Scattered Clouds
4:15 PM 82.4 °F 86.3 °F 69.8 °F 66% 30.01 in 10.0 mi NE 12.7 mph 17.3 mph N/A   Partly Cloudy
4:35 PM 82.4 °F 86.3 °F 69.8 °F 66% 30.00 in 10.0 mi ENE 11.5 mph - N/A   Partly Cloudy
4:55 PM 80.6 °F 83.9 °F 69.8 °F 70% 30.01 in 10.0 mi East 8.1 mph - N/A   Mostly Cloudy
5:15 PM 80.6 °F 83.9 °F 69.8 °F 70% 30.02 in 10.0 mi East 10.4 mph - N/A   Overcast
5:35 PM 80.6 °F 84.6 °F 71.6 °F 74% 30.01 in 10.0 mi ESE 5.8 mph - N/A   Overcast
5:55 PM 80.6 °F 84.6 °F 71.6 °F 74% 30.01 in 10.0 mi East 10.4 mph - N/A   Partly Cloudy
6:15 PM 80.6 °F 83.9 °F 69.8 °F 70% 30.02 in 10.0 mi East 11.5 mph - N/A   Mostly Cloudy
6:35 PM 80.6 °F 83.2 °F 68.0 °F 65% 30.02 in 10.0 mi East 10.4 mph - N/A   Mostly Cloudy
6:55 PM 80.6 °F 83.9 °F 69.8 °F 70% 30.02 in 10.0 mi East 9.2 mph - N/A   Mostly Cloudy
7:15 PM 78.8 °F - 68.0 °F 69% 30.03 in 10.0 mi East 11.5 mph - N/A   Mostly Cloudy
7:35 PM 77.0 °F - 66.2 °F 69% 30.04 in 10.0 mi East 6.9 mph - N/A   Mostly Cloudy
7:55 PM 77.0 °F - 66.2 °F 69% 30.04 in 10.0 mi ESE 4.6 mph - N/A   Mostly Cloudy
8:15 PM 75.2 °F - 69.8 °F 83% 30.05 in 10.0 mi SSE 4.6 mph - N/A   Scattered Clouds
8:35 PM 75.2 °F - 69.8 °F 83% 30.06 in 10.0 mi Calm Calm - N/A   Partly Cloudy
8:55 PM 73.4 °F - 69.8 °F 88% 30.07 in 10.0 mi Calm Calm - N/A   Scattered Clouds
9:15 PM 73.4 °F - 69.8 °F 88% 30.07 in 10.0 mi East 6.9 mph - N/A   Partly Cloudy
9:35 PM 73.4 °F - 66.2 °F 78% 30.08 in 10.0 mi East 6.9 mph - N/A   Partly Cloudy
9:55 PM 73.4 °F - 64.4 °F 73% 30.09 in 10.0 mi ESE 4.6 mph - N/A   Mostly Cloudy
10:15 PM 71.6 °F - 64.4 °F 78% 30.10 in 10.0 mi East 6.9 mph - N/A   Partly Cloudy
10:35 PM 71.6 °F - 64.4 °F 78% 30.10 in 10.0 mi East 4.6 mph - N/A   Clear
10:55 PM 71.6 °F - 64.4 °F 78% 30.11 in 10.0 mi ENE 6.9 mph - N/A   Clear
11:15 PM 69.8 °F - 64.4 °F 83% 30.11 in 10.0 mi East 8.1 mph - N/A   Clear
11:35 PM 69.8 °F - 64.4 °F 83% 30.11 in 10.0 mi East 5.8 mph - N/A   Clear
11:55 PM 69.8 °F - 64.4 °F 83% 30.10 in 10.0 mi East 4.6 mph - N/A   Clear